Home   Weather   Khanty-Mansiysk   Past weeks

Flag for Russia Past Weather in Khanty-Mansiysk, Russia — Yesterday and Last 2 Weeks

30 °F

Passing clouds.

Feels Like: 24 °F
Forecast: 26 / 29 °F
Wind: 6 mph from South

Location: Hanty-Mansijsk

Current Time: Oct 28, 2016 at 9:13:02 PM

Latest Report: Oct 28, 2016 at 8:30 PM

Visibility: N/A

Pressure: 30.57 "Hg

Humidity: 69%

Dew Point: 21 °F

Location of Khanty-MansiyskLocation

Past Weather in Khanty-Mansiysk — Graph


Khanty-Mansiysk Temperature Yesterday

Maximum temperature yesterday: 32 °F (at 12:00 AM)
Minimum temperature yesterday: 23 °F (at 11:30 PM)
Average temperature yesterday: 29 °F

High & Low Weather Summary for the Past Weeks

High36 °F (Oct 24, 10:30 AM)100% (Oct 17, 4:00 PM)30.80 "Hg (Oct 17, 4:00 PM)
Low19 °F (Oct 28, 4:00 AM)55% (Oct 25, 1:30 PM)29.68 "Hg (Oct 18, 5:00 AM)
Average29 °F87%30.35 "Hg
* Reported Oct 13 8:00 PM — Oct 28 8:00 PM, Khanty-Mansiysk, Weather by CustomWeather, © 2016

Note: Actual official high and low records may vary slightly from our data, if they occured in-between our weather recording intervals... More about our weather records


Khanty-Mansiysk Weather History for the Previous 24 Hours

Scroll right to see more
Time TempWeatherWind HumidityBarometerVisibility
8:00 PM
Fri, Oct 28
28 °FPassing clouds.6 mph74%30.57 "HgN/A
7:30 PM28 °FPassing clouds.6 mph74%30.57 "HgN/A
7:00 PM28 °FPassing clouds.6 mph74%30.60 "HgN/A
6:30 PM28 °FPassing clouds.3 mph74%30.60 "HgN/A
6:00 PM28 °FPassing clouds.3 mph74%30.60 "HgN/A
5:30 PM27 °FPassing clouds.3 mph80%30.60 "HgN/A
5:00 PM27 °FPassing clouds.3 mph74%30.60 "HgN/A
4:30 PM28 °FScattered clouds.3 mph74%30.60 "HgN/A
4:00 PM30 °FScattered clouds.6 mph69%30.63 "HgN/A
3:30 PM30 °FPassing clouds.6 mph69%30.63 "HgN/A
3:00 PM30 °FPassing clouds.8 mph69%30.63 "HgN/A
2:30 PM30 °FPassing clouds.8 mph69%30.63 "HgN/A
2:00 PM30 °FSunny.8 mph69%30.63 "Hg10 mi
1:30 PM30 °FSunny.6 mph75%30.63 "Hg10 mi
1:00 PM30 °FSunny.6 mph75%30.66 "Hg10 mi
12:30 PM28 °FSunny.6 mph80%30.66 "Hg10 mi
12:00 PM28 °FSunny.6 mph80%30.66 "Hg10 mi
11:30 AM27 °FSunny.3 mph86%30.66 "Hg10 mi
11:00 AM25 °FSunny.3 mph93%30.66 "Hg10 mi
10:30 AM25 °FSunny.3 mph86%30.66 "Hg10 mi
10:00 AM23 °FSunny.3 mph93%30.66 "Hg10 mi
9:30 AM21 °FSunny.1 mph93%30.66 "Hg10 mi
9:00 AM21 °FSunny.1 mph93%30.66 "Hg10 mi
8:30 AM19 °FSunny.1 mph93%30.66 "Hg10 mi
8:00 AM19 °FSunny.No wind93%30.66 "Hg10 mi
7:30 AM19 °FClear.1 mph93%30.66 "Hg10 mi
7:00 AM19 °FClear.1 mph93%30.66 "Hg10 mi
6:30 AM19 °FClear.No wind93%30.66 "Hg10 mi
6:00 AM19 °FClear.1 mph93%30.66 "Hg10 mi
5:30 AM19 °FClear.No wind93%30.66 "Hg10 mi
5:00 AM21 °FClear.1 mph86%30.66 "Hg10 mi
4:30 AM19 °FClear.1 mph93%30.66 "Hg10 mi
4:00 AM19 °FClear.1 mph93%30.66 "Hg10 mi
3:30 AM21 °FClear.No wind86%30.66 "Hg10 mi
3:00 AM21 °FClear.No wind93%30.66 "Hg10 mi
2:30 AM21 °FClear.No wind93%30.66 "Hg10 mi
2:00 AM21 °FPassing clouds.No wind93%30.66 "HgN/A
1:30 AM21 °FClear.No wind93%30.66 "Hg10 mi
1:00 AM21 °FCold.No wind100%30.66 "HgN/A
12:30 AM21 °FCold.No wind93%30.66 "HgN/A
12:00 AM21 °FClear.No wind100%30.66 "Hg10 mi
11:30 PM
Thu, Oct 27
23 °FClear.No wind93%30.66 "Hg10 mi
11:00 PM25 °FClear.No wind93%30.66 "Hg10 mi
10:30 PM25 °FClear.No wind93%30.66 "Hg10 mi
10:00 PM25 °FClear.No wind93%30.66 "Hg10 mi
9:30 PM25 °FClear.No wind93%30.66 "Hg10 mi
9:00 PM25 °FClear.1 mph93%30.66 "Hg10 mi
Weather by CustomWeather, © 2016

See weather overviewHow to use our weather pages